Location: *
(51.4660°N, 0.3360°W)
Time: 15:30:50
(UTC+00:00)

Cosmos 2154 Rocket - Pass Details

Date: 19 September 2019
Orbit: 965 x 997 km, 82.9° (Epoch: 16 October)

Event Time Altitude Azimuth Distance (km) Brightness Sun altitude
Rises 19:08:43 0° 349° (N) 3,670 7.4 -10.2°
Reaches altitude 10° 19:11:14 10° 349° (N) 2,718 6.7 -10.6°
Maximum altitude 19:17:27 84° 263° (W) 979 4.1 -11.6°
Drops below altitude 10° 19:23:39 10° 175° (S) 2,703 6.1 -12.5°
Sets 19:26:08 0° 175° (S) 3,649 6.8 -12.8°
